Flag for U.S.A. Weather past 2 weeks in Waterbury, Connecticut, U.S.A.

Now
57 °F

Sunny.


Feels Like: 55 °F
Forecast: 50 / 72 °F
Wind: 9 mph from Northwest

Location: Oxford

Current Time: May 22, 2015 at 10:06:35 AM

Latest Report: May 22, 2015 at 8:50 AM


Visibility: 10 mi

Pressure: 29.91 "Hg

Humidity: 51%

Dew point: 39 °F

Location of WaterburyLocation

Historic Weather in Waterbury — Graph

°F

Waterbury temperature yesterday

Maximum temperature yesterday: 63 °F (at 3:50 PM)
Minimum temperature yesterday: 43 °F (at 3:35 AM)
Average temperature yesterday: 49 °F

Past Weeks' High & Low Weather Summary

 TemperatureHumidityPressure
High82 °F (May 8, 1:50 PM)100% (May 12, 5:50 AM)30.39 "Hg (May 12, 5:50 AM)
Low34 °F (May 12, 5:50 AM)21% (May 14, 2:55 PM)29.74 "Hg (May 12, 5:50 PM)
Average60 °F67%30.11 "Hg
* Reported May 7 8:50 AM — May 22 8:50 AM, Waterbury, Weather by CustomWeather, © 2015

Note: Actual official high and low records may vary slightly from our data, if they occured in-between our weather recording intervals... More about our weather records

Advertising

Waterbury weather history for previous 24 hours

 ConditionsComfort  
Time TempWeatherWind HumidityBarometerVisibility
8:50 AM
Fri, May 22
57 °FSunny.9 mph51%29.91 "Hg10 mi
7:50 AM55 °FSunny.5 mph63%29.89 "Hg10 mi
6:50 AM52 °FScattered clouds.5 mph67%29.88 "Hg10 mi
5:55 AM52 °FOvercast.8 mph62%29.87 "Hg10 mi
5:35 AM50 °FMostly cloudy.7 mph71%29.87 "Hg10 mi
5:15 AM50 °FMostly cloudy.5 mph76%29.86 "Hg10 mi
4:55 AM50 °FMostly cloudy.3 mph76%29.86 "Hg10 mi
4:35 AM50 °FOvercast.6 mph76%29.86 "Hg10 mi
4:15 AM48 °FOvercast.No wind76%29.86 "Hg10 mi
3:55 AM48 °FOvercast.No wind76%29.86 "Hg10 mi
3:35 AM48 °FOvercast.No wind76%29.86 "Hg10 mi
3:15 AM48 °FOvercast.No wind76%29.86 "Hg10 mi
2:55 AM50 °FOvercast.No wind71%29.86 "Hg10 mi
2:35 AM48 °FOvercast.No wind76%29.86 "Hg10 mi
2:15 AM50 °FOvercast.No wind71%29.87 "Hg10 mi
1:55 AM50 °FOvercast.3 mph71%29.87 "Hg10 mi
1:35 AM50 °FOvercast.No wind71%29.87 "Hg10 mi
1:15 AM50 °FOvercast.3 mph71%29.88 "Hg10 mi
12:55 AM50 °FOvercast.3 mph71%29.88 "Hg10 mi
12:35 AM50 °FOvercast.5 mph71%29.88 "Hg10 mi
12:15 AM50 °FOvercast.3 mph76%29.89 "Hg10 mi
11:55 PM
Thu, May 21
50 °FOvercast.3 mph76%29.90 "Hg10 mi
11:35 PM50 °FOvercast.3 mph76%29.90 "Hg10 mi
11:15 PM52 °FOvercast.6 mph72%29.90 "Hg10 mi
10:55 PM52 °FMostly cloudy.3 mph67%29.91 "Hg10 mi
10:35 PM52 °FMostly cloudy.5 mph67%29.92 "Hg10 mi
10:15 PM52 °FMostly cloudy.5 mph67%29.93 "Hg10 mi
9:55 PM52 °FOvercast.6 mph62%29.93 "Hg10 mi
9:35 PM52 °FMostly cloudy.7 mph62%29.94 "Hg10 mi
9:15 PM52 °FOvercast.6 mph62%29.93 "Hg10 mi
8:55 PM54 °FOvercast.7 mph58%29.92 "Hg10 mi
7:55 PM54 °FMostly cloudy.12 mph54%29.92 "Hg10 mi
6:45 PM57 °FPartly sunny.12 mph44%29.90 "Hg10 mi
5:50 PM61 °FScattered clouds.12 mph42%29.90 "Hg10 mi
3:50 PM63 °FPartly sunny.8 mph39%29.92 "Hg10 mi
1:50 PM61 °FScattered clouds.7 mph36%29.95 "Hg10 mi
12:50 PM57 °FPartly sunny.6 mph41%29.96 "Hg10 mi
11:50 AM55 °FPartly sunny.No wind47%29.98 "Hg10 mi
Weather by CustomWeather, © 2015

See weather overviewHow to use our weather pages